Tracking 29777 objects as of 7-Oct-2024
HD Live streaming from Space Station
objects crossing your sky now

STARLINK-30931

Track STARLINK-30931 now!
10-day predictions
STARLINK-30931 is classified as:


NORAD ID: 58413
Int'l Code: 2023-180M
Perigee: 565.3 km
Apogee: 567.1 km
Inclination: 43.0 °
Period: 95.8 minutes
Semi major axis: 6937 km
RCS: Unknown
Launch date: November 22, 2023
Source: United States (US)
Launch site: AIR FORCE EASTERN TEST RANGE (AFETR)
Your satellite tracking list
Your tracking list is empty




NASA's NSSDC Master Catalog

Two Line Element Set (TLE):
1 58413U 23180M   24280.52061042  .00001118  00000-0  97807-4 0  9997
2 58413  43.0020 344.6191 0001303 269.3983  90.6710 15.02530300 49631
Source of the keplerian elements: AFSPC